EHI
0 0 0 0 0 0 0 0 0 0 0 0 0 0 0 0 0 0 0 0 0 0 0 0 0 0 0 0 0 0 0 0 0 0 0 0 0 0 0 0 0 0 0
0 0 0 0 0 0 0 0 0 0 0 0 0 0 0 0 0 0 0 0 0 0 0 0 0 0 0 0 0 0 0 0 0 0 0 0 0 0 0 0 0 0 0
0 0 0 0 0 0 0 0 0 0 0 0 0 0 0 0 0 0 0 0 0 0 0 0 0 0 0 0 0 0 0 0 0 0 0 0 0 0 0 0 0 0 0
0 0 0 0 0 0 0 0 0 0 0 0 0 0 0 0 0 0 0 0 0 0 0 0 0 0 0 0 0 0 0 0 0 0 0 0 0 0 0 0 0 0 0
0 0 0 0 0 0 0 0 0 0 0 0 0 0 0 0 0 0 0 0 0 0 0 0 0 0 0 0 0 0 0 0 0 0 0 0 0 0 0 0 0 0 0
0 0 0 0 0 0 0 0 0 0 0 0 0 0 0 0 0 0 0 0 0 0 0 0 0 0 0 0 0 0 0 0 0 0 0 0 0 0 0 0 0 0 0
0 0 0 0 0 0 0 0 0 0 0 0 0 0 0 0 0 0 0 0 0 0 0 0 0 0 0 0 0 0 0 0 0 0 0 0 0 0 0 0 0 0 0
0 0 0 0 0 0 0 0 0 0 0 0 0 0 0 0 0 0 0 0 0 0 0 0 0 0 0 0 0 0 0 0 0 0 0 0 0 0 0 0 0 0 0
0 0 0 0 0 0 0 0 0 0 0 0 0 0 0 0 0 0 0 0 0 0 0 0 0 0 0 0 0 0 0 0 0 0 0 0 0 0 0 0 0 0 0
0 0 0 0 0 0 0 0 0 0 0 0 0 0 0 0 0 0 0 0 0 0 0 0 0 0 0 0 0 0 0 0 0 0 0 0 0 0 0 0 0 0 0
0 0 0 0 0 0 0 0 0 0 0 0 0 0 0 0 0 0 0 0 0 0 0 0 0 0 0 0 0 0 0 0 0 0 0 0 0 0 0 0 0 0 0
0 0 0 0 0 0 0 0 0 0 0 0 0 0 0 0 0 0 0 0 0 0 0 0 0 0 0 0 0 0 0 0 0 0 0 0 0 0 0 0 0 0 0
0 0 0 0 0 0 0 0 0 0 0 0 0 0 0 0 0 0 0 0 0 0 0 0 0 0 0 0 0 0 0 0 0 0 0 0 0 0 0 0 0 0 0
0 0 0 0 0 0 0 0 0 0 0 0 0 0 0 0 0 0 0 0 0 0 0 0 0 0 0 0 0 0 0 0 0 0 0 0 0 0 0 0 0 0 0
0 0 0 0 0 0 0 0 0 0 0 0 0 0 0 0 0 0 0 0 0 0 0 0 0 0 0 0 0 0 0 0 0 0 0 0 0 0 0 0 0 0 0
0 0 0 0 0 0 0 0 0 0 0 0 0 0 0 0 0 0 0 0 0 0 0 0 0 0 0 0 0 0 0 0 0 0 0 0 0 0 0 0 0 0 0
0 0 0 0 0 0 0 0 0 0 0 0 0 0 0 0 0 0 0 0 0 0 0 0 0 0 0 0 0 0 0 0 0 0 0 0 0 0 0 0 0 0 0
0 0 0 0 0 0 0 0 0 0 0 0 0 0 0 0 0 0 0 0 0 0 0 0 0 0 0 0 0 0 0 0 0 0 0 0 0 0 0 0 0 0 0
0 0 0 0 0 0 0 0 0 0 0 0 0 0 0 0 0 0 0 0 0 0 0 0 0 0 0 0 0 0 0 0 0 0 0 0 0 0 0 0 0 0 0
0 0 0 0 0 0 0 0 0 0 0 0 0 0 0 0 0 0 0 0 0 0 0 0 0 0 0 0 0 0 0 0 0 0 0 0 0 0 0 0 0 0 0
0 0 0 0 0 0 0 0 0 0 0 0 0 0 0 0 0 0 0 0 0 0 0 0 0 0 0 0 0 0 0 0 0 0 0 0 0 0 0 0 0 0 0
0 0 0 0 0 0 0 0 0 0 0 0 0 0 0 0 0 0 0 0 0 0 0 0 0 0 0 0 0 0 0 0 0 0 0 0 0 0 0 0 0 0 0
0 0 0 0 0 0 0 0 0 0 0 0 0 0 0 0 0 0 0 0 0 0 0 0 0 0 0 0 0 0 0 0 0 0 0 0 0 0 0 0 0 0 0
0 0 0 0 0 0 0 0 0 0 0 0 0 0 0 0 0 0 0 0 0 0 0 0 0 0 0 0 0 0 0 0 0 0 0 0 0 0 0 0 0 0 0
0 0 0 0 0 0 0 0 0 0 0 0 0 0 0 0 0 0 0 0 0 0 0 0 0 0 0 0 0 0 0 0 0 0 0 0 0 0 0 0 0 0 0
0 0 0 0 0 0 0 0 0 0 0 0 0 0 0 0 0 0 0 0 0 0 0 0 0 0 0 0 0 0 0 0 0 0 0 0 0 0 0 0 0 0 0
Wind_Speed
10 14 20 18 17 16 14 13 12 11 10 9 9 9 9 9 9 9 10 10 10 10 11 11 12 12 12 13 14 14 15 16 16 16 16 16 15 15 15 14 12 12 16
13 17 20 19 18 16 15 14 12 11 10 9 9 8 9 9 9 9 9 9 10 10 10 11 11 12 12 13 13 13 14 14 14 14 13 13 14 15 15 15 14 11 15
13 17 20 20 19 17 16 14 13 12 11 10 9 8 8 8 8 8 8 8 9 9 9 10 10 11 11 12 12 12 13 13 13 12 11 10 11 14 14 14 14 14 14
13 17 17 20 19 18 16 15 14 13 11 10 9 9 8 8 7 7 7 8 8 8 9 9 9 10 10 10 11 11 12 12 11 9 8 9 9 12 13 13 13 13 13
14 16 17 21 20 19 17 16 14 13 12 11 10 9 8 7 7 7 7 7 7 7 7 8 8 8 9 9 9 10 10 10 9 8 8 8 8 10 11 11 11 12 12
14 16 17 21 20 19 18 17 15 14 13 11 10 9 8 8 7 7 6 6 6 6 6 7 7 7 8 8 8 9 9 8 5 7 7 7 7 9 10 10 10 10 10
14 15 17 21 20 19 18 17 16 15 13 12 11 10 9 8 8 7 6 6 5 5 5 5 6 6 6 6 7 7 7 6 5 5 5 6 7 8 8 8 8 8 8
13 14 15 20 20 19 18 17 17 16 14 13 12 11 10 9 8 8 7 6 5 5 4 4 4 4 4 5 5 6 6 5 3 3 4 5 7 6 6 6 6 6 6
11 13 13 16 17 19 18 17 17 16 15 14 13 11 10 9 9 9 8 7 6 5 4 3 3 2 2 3 3 4 4 4 2 2 3 3 7 5 4 4 4 4 4
10 13 14 15 15 15 15 16 16 15 15 14 13 11 10 9 9 9 9 8 7 6 5 4 3 2 1 1 1 1 2 2 2 2 2 3 7 7 4 3 3 3 3
11 12 13 14 14 14 13 13 14 14 14 13 12 11 10 8 9 8 8 9 8 7 7 6 5 4 3 3 1 2 3 3 3 3 3 4 8 8 6 5 4 5 4
13 14 13 14 13 12 10 10 10 10 10 11 9 10 9 8 6 6 6 8 8 8 8 7 7 6 6 4 4 5 4 4 5 4 4 6 9 10 10 9 8 8 8
11 12 13 13 12 12 9 9 7 6 7 9 11 10 8 7 5 6 5 7 8 8 7 6 7 6 6 5 4 5 5 5 4 4 5 8 11 12 13 12 11 11 11
9 12 13 14 13 12 11 9 8 7 7 7 8 10 7 5 6 6 5 6 6 5 6 6 6 7 8 8 8 8 8 6 6 5 6 11 13 15 15 15 15 15 14
9 11 12 14 14 13 11 9 9 9 8 9 8 9 10 7 7 7 6 6 7 6 7 7 8 9 9 9 9 10 10 10 10 9 6 12 16 17 18 18 18 18 18
8 10 11 13 14 14 12 10 9 9 8 9 9 10 11 9 8 8 8 8 8 8 8 8 10 9 9 9 10 11 12 12 11 11 10 10 16 19 20 21 21 21 21
5 7 10 11 12 14 13 12 9 8 8 9 8 10 12 11 10 9 9 9 9 9 10 9 11 9 9 10 12 13 12 13 13 13 12 10 11 16 21 23 23 23 23
2 4 7 7 10 12 11 10 8 8 8 8 8 9 11 13 13 10 9 9 10 9 8 9 9 10 10 11 11 11 11 11 14 14 13 13 11 10 15 23 25 26 26
5 5 5 6 7 8 9 8 8 7 8 7 7 8 9 12 12 11 10 10 10 8 9 9 10 10 11 12 11 11 11 12 13 13 15 16 15 14 13 16 24 27 28
9 7 6 5 5 5 5 5 5 6 6 7 7 8 10 10 11 11 10 12 10 8 9 10 12 11 10 11 11 12 12 13 13 14 16 15 15 17 17 16 15 17 28
11 10 8 6 5 4 3 3 3 4 5 6 7 9 11 11 11 11 9 11 10 9 11 13 12 12 11 9 9 11 13 16 17 14 14 14 15 16 16 17 14 12 12
12 11 9 7 5 4 2 2 1 2 3 4 5 7 9 10 11 9 11 10 10 9 12 13 12 10 9 8 7 8 9 9 11 11 12 12 14 13 14 16 16 15 13
11 10 8 8 6 4 3 2 1 2 3 3 4 5 7 8 10 11 12 11 11 10 10 12 12 13 11 10 9 8 8 8 7 6 10 10 11 11 12 12 15 15 15
9 8 8 8 7 5 3 1 1 2 3 3 3 4 5 6 8 9 10 11 11 10 12 12 12 11 12 11 10 10 12 10 9 9 7 9 11 12 13 12 13 14 15
8 7 7 8 7 5 3 1 1 3 3 4 4 5 5 5 6 7 9 9 10 10 12 13 12 13 11 12 11 10 12 12 14 12 14 13 12 12 12 14 13 13 15
7 6 6 7 7 5 4 2 2 3 5 5 6 5 5 4 4 6 6 8 9 9 11 12 12 14 13 14 12 11 12 11 11 12 15 15 15 13 13 12 12 13 13
Wind_Direction
175 170 172 177 170 169 166 163 157 151 144 136 128 119 111 104 98 95 89 84 79 74 71 70 68 66 63 61 59 57 56 54 52 50 49 54 62 64 62 58 56 58 56
164 167 172 175 172 171 169 166 161 156 151 145 136 128 120 112 106 99 92 87 82 77 73 71 69 68 67 65 62 61 60 59 56 53 52 55 59 63 60 58 57 60 60
159 165 172 175 173 173 171 169 166 162 159 154 147 138 130 123 116 107 99 92 85 79 74 72 71 70 69 67 65 62 62 60 56 52 55 53 55 61 60 58 58 59 60
163 167 173 172 174 174 174 172 170 168 166 161 156 147 140 134 127 117 107 99 91 84 77 74 74 72 72 69 67 64 62 59 54 51 54 49 48 58 57 56 56 57 57
167 171 171 172 175 176 176 175 174 173 171 168 163 158 153 147 137 127 117 107 98 91 83 76 75 74 74 71 69 66 62 56 52 58 56 49 46 55 58 55 55 55 55
170 174 171 175 177 179 179 179 177 177 177 174 171 169 164 157 148 137 128 119 110 101 92 81 75 73 74 73 71 67 60 48 50 59 53 45 38 52 56 54 53 52 51
172 175 173 178 180 181 182 182 181 181 182 180 178 177 174 167 160 150 145 136 128 117 103 90 80 73 72 72 72 67 56 35 38 54 44 39 30 42 48 48 46 48 48
175 176 175 181 183 185 186 186 185 185 187 186 185 186 183 179 172 166 163 156 151 142 127 112 95 79 73 71 71 70 57 23 35 42 34 30 18 30 42 38 35 40 42
180 181 181 182 186 189 191 191 189 190 191 192 191 192 191 188 185 181 177 174 173 166 156 145 128 104 82 78 73 72 67 29 323 14 357 6 358 360 24 23 15 18 24
186 189 188 187 187 190 192 194 193 193 196 197 197 195 195 197 198 193 190 187 188 187 186 185 184 182 168 105 86 98 87 245 305 289 286 333 335 329 333 333 330 332 335
194 197 196 194 191 192 193 192 194 196 199 201 202 194 197 206 204 200 199 190 200 203 205 207 213 216 212 203 197 146 206 263 282 279 276 306 305 304 299 288 282 284 283
198 198 199 200 196 194 193 192 199 200 200 205 208 202 206 209 210 210 174 197 211 215 218 221 223 220 226 227 189 199 243 256 267 260 260 275 282 286 284 277 268 265 265
205 198 203 202 201 199 196 198 199 200 202 207 212 210 208 206 205 211 207 198 211 218 224 213 220 227 236 244 252 247 260 267 262 262 254 256 268 272 274 273 268 262 259
212 204 203 203 204 205 205 202 204 203 203 207 207 210 207 207 213 216 220 222 222 219 228 231 238 237 242 245 249 256 256 252 256 258 256 252 260 264 266 267 267 263 258
217 210 205 204 205 205 210 211 211 211 209 209 209 212 215 216 219 221 226 228 232 233 231 237 243 247 247 250 250 254 256 255 255 252 252 248 253 257 261 262 263 263 260
222 213 204 205 207 206 209 214 215 217 216 219 214 215 218 224 227 228 233 234 238 237 241 244 249 252 253 252 255 254 255 257 254 252 251 249 247 250 254 257 259 260 260
224 210 203 204 207 209 213 218 222 222 223 224 224 224 223 227 231 233 239 239 240 242 244 247 253 256 258 258 258 258 257 256 255 253 251 250 247 244 246 250 253 255 257
170 185 186 191 204 210 215 220 224 228 229 231 233 232 231 234 238 240 243 246 246 245 245 248 252 252 253 256 259 259 256 253 255 255 252 247 245 245 243 243 247 249 251
86 121 152 175 192 203 212 220 228 233 235 239 241 240 239 241 243 244 247 251 252 246 246 250 253 254 259 261 262 264 261 259 257 254 251 249 245 243 244 244 243 246 247
76 89 110 139 165 181 196 214 224 236 240 241 243 243 244 243 243 246 251 255 256 249 248 249 253 256 259 268 274 272 267 262 257 254 253 251 247 243 241 244 243 244 244
74 78 87 104 126 150 164 188 211 230 237 240 243 248 247 247 245 244 249 255 252 248 250 254 256 259 259 262 271 273 264 255 250 248 247 248 247 244 242 241 241 242 244
72 74 79 88 106 132 151 174 226 260 263 265 256 253 252 250 248 246 248 252 252 250 253 255 255 255 258 249 252 279 283 273 246 237 243 244 247 246 243 241 240 239 240
69 67 73 78 90 105 134 160 181 232 250 248 255 259 260 257 254 250 251 254 255 253 254 255 253 248 252 251 233 244 268 276 302 248 234 241 244 245 245 243 240 239 238
74 74 77 80 82 88 117 167 231 275 293 307 307 293 286 273 265 259 257 257 258 255 254 255 253 251 250 254 250 234 244 266 279 286 253 241 246 251 253 250 246 243 239
84 82 83 84 80 79 84 77 291 298 308 313 311 302 301 290 276 269 265 263 261 259 258 259 258 253 247 248 250 249 246 248 249 258 273 272 262 250 249 251 250 247 244
96 90 87 87 80 74 71 58 351 328 321 318 320 318 315 307 294 283 275 268 265 263 262 261 259 256 252 250 249 248 249 247 246 250 263 269 270 266 260 251 248 249 248